Location: Gälforsberget
(66.6500°N, 22.4167°E)
Time: 07:34:41
(UTC+00:00)

Cosmos 407 Rocket - Pass Details

Date: 11 April 2026
Orbit: 740 x 781 km, 74.0° (Epoch: 13 May)

Event Time Altitude Azimuth Distance (km) Brightness Sun altitude
Rises 20:01:37 0° 310° (NW) 3,238 8.6 -10.1°
Reaches altitude 10° 20:04:02 10° 314° (NW) 2,304 7.5 -10.2°
Maximum altitude 20:09:13 61° 35° (NE) 858 3.9 -10.5°
Enters shadow 20:14:13 11° 116° (ESE) 2,235 5.4 -10.8°
